Weerstation Grootegast  Weerstation Grootegast


15 daagse weersverwachting Reggio Calabria (IT)

  • Overzicht
  • Per uur
  • 15 dagen
  • Extra
  • Vergelijk
  • Kaarten
  • Dagkaart
  • Meer »
  • Info
  • Statistieken
  • Directe link
    Temp 6h Neerslag Wind  
 06:19     19:42    Daglengte: 13:23 Vandaag
08:00
23°
 
1
14:00
25°
3.1 mm
3
warningclass
20:00
23°
11.9 mm
1
 06:20     19:41    Daglengte: 13:21 Morgen
02:00
21°
 
2
08:00
23°
 
2
14:00
25°
9.5 mm
2
warningclass
20:00
23°
11.5 mm
1
 06:20     19:40    Daglengte: 13:20 Donderdag 23 Aug
02:00
22°
 
2
08:00
23°
 
3
14:00
25°
7.2 mm
4
20:00
23°
28.7 mm
4
warningclass
Locatie info
Region: Calabria
Latitude: 38.1105°N
Longitude: 15.6613°E
110 masl
Temp/Neerslag /Baro Onweer/Dauwpunt
    Temp Baro 1h Neerslag Dauwpunt Wind UV Bewolking  
 06:19     19:42    Daglengte: 13:23 Vandaag
04:00
21°
1011.8 hPa
46%
20.7°
2
Windvlaag: 0.2 m/s
11%
05:00
21°
1011.8 hPa
25%
20.4°
2
Windvlaag: 0.2 m/s
11%
06:00
21°
1012.2 hPa
25%
20.2°
1
Windvlaag: -0.1 m/s
33%
07:00
21°
1012.7 hPa
26%
20.6°
1
Windvlaag: 0 m/s
28%
08:00
23°
1012.9 hPa
22%
21.3°
1
Windvlaag: 0.2 m/s
36%
09:00
24°
1013.2 hPa
24%
21.6°
1
Windvlaag: 0.3 m/s
26%
10:00
25°
1013.5 hPa
25%
21.2°
2
Windvlaag: 0.2 m/s
53%
11:00
25°
1013.8 hPa 1.3 mm
24%
21.3°
2
Windvlaag: 0 m/s
49% warningclass
12:00
25°
1013.8 hPa
25%
21.5°
2
Windvlaag: -0.2 m/s
70%
13:00
25°
1013.4 hPa
30%
21.9°
3
Windvlaag: 0 m/s
64%
14:00
25°
1013.3 hPa 1.8 mm
26%
22.1°
3
Windvlaag: 0.4 m/s
59% warningclass
15:00
25°
1012.9 hPa 2.5 mm
26%
22.0°
3
Windvlaag: 0.5 m/s
80% warningclass
16:00
25°
1012.6 hPa 2.5 mm
29%
21.9°
2
Windvlaag: 0.9 m/s
71% warningclass
17:00
25°
1012.6 hPa 2.8 mm
32%
21.5°
2
Windvlaag: 0.8 m/s
61% warningclass
18:00
25°
1012.7 hPa 2.0 mm
68%
21.3°
2
Windvlaag: 0.5 m/s
52% warningclass
19:00
24°
1012.6 hPa 2.1 mm
62%
21.3°
2
Windvlaag: -0.1 m/s
47% warningclass
20:00
23°
1012.8 hPa
25%
21.5°
1
Windvlaag: -0.1 m/s
36%
21:00
23°
1013.4 hPa
61%
21.3°
1
Windvlaag: 0.2 m/s
38%
22:00
22°
1013.6 hPa
24%
21.3°
1
Windvlaag: 0.2 m/s
21%
23:00
22°
1013.6 hPa
24%
20.9°
1
Windvlaag: 0.1 m/s
26%
 06:20     19:41    Daglengte: 13:21 Morgen
00:00
22°
1013.8 hPa
25%
20.4°
1
Windvlaag: 0.2 m/s
28%
01:00
22°
1013.7 hPa
26%
20.2°
1
Windvlaag: 0.3 m/s
29%
02:00
21°
1013.8 hPa
25%
20.4°
2
Windvlaag: 0.3 m/s
43%
03:00
21°
1013.3 hPa
25%
20.4°
1
Windvlaag: 0.1 m/s
31%
04:00
21°
1013.3 hPa
26%
20.4°
1
Windvlaag: -0 m/s
31%
05:00
21°
1013.2 hPa
27%
19.9°
1
Windvlaag: 0.2 m/s
35%
06:00
21°
1013.3 hPa
27%
19.5°
1
Windvlaag: 0.4 m/s
33%
07:00
21°
1014.0 hPa
28%
19.7°
2
Windvlaag: 0.6 m/s
38%
08:00
23°
1014.3 hPa
30%
20.4°
2
Windvlaag: 0.6 m/s
39%
09:00
24°
1014.6 hPa
34%
20.4°
1
Windvlaag: 0.4 m/s
45%
10:00
24°
1014.8 hPa 1.9 mm
70%
20.0°
2
Windvlaag: 0.1 m/s
46%
11:00
24°
1015.0 hPa 1.7 mm
73%
20.5°
2
Windvlaag: -0.2 m/s
56%
12:00
24°
1014.9 hPa 1.9 mm
72%
20.3°
2
Windvlaag: -0.2 m/s
59%
13:00
25°
1014.8 hPa 2.0 mm
74%
20.5°
2
Windvlaag: -0.3 m/s
57% warningclass
14:00
25°
1014.4 hPa 2.0 mm
74%
20.9°
2
Windvlaag: -0.1 m/s
58% warningclass
15:00
25°
1014.2 hPa 2.4 mm
71%
21.1°
2
Windvlaag: 0.2 m/s
74% warningclass
16:00
24°
1014.1 hPa 2.4 mm
66%
20.9°
2
Windvlaag: 0.5 m/s
70% warningclass
17:00
24°
1014.1 hPa 2.4 mm
67%
21.0°
2
Windvlaag: 0.8 m/s
51% warningclass
18:00
24°
1013.9 hPa 1.8 mm
66%
20.5°
2
Windvlaag: 0.4 m/s
56%
19:00
24°
1013.9 hPa 2.4 mm
64%
20.6°
1
Windvlaag: 0.2 m/s
46%
20:00
23°
1013.9 hPa
20%
20.5°
1
Windvlaag: -0.1 m/s
28%
21:00
23°
1014.6 hPa
17%
20.5°
1
Windvlaag: -0.1 m/s
19%
22:00
23°
1014.8 hPa
19%
20.4°
1
Windvlaag: -0.1 m/s
19%
23:00
22°
1014.9 hPa
30%
21.6°
1
Windvlaag: -0.2 m/s
29%
 06:20     19:40    Daglengte: 13:20 Donderdag 23 Aug
00:00
22°
1014.9 hPa
26%
21.2°
1
Windvlaag: -0.2 m/s
32%
01:00
22°
1014.7 hPa
24%
21.4°
2
Windvlaag: -0.2 m/s
25%
02:00
22°
1014.4 hPa
24%
21.4°
2
Windvlaag: -0.3 m/s
27%
03:00
21°
1014.0 hPa
29%
21.3°
2
Windvlaag: -0.1 m/s
31%
04:00
21°
1013.8 hPa
31%
21.3°
2
Windvlaag: -0.2 m/s
44%
05:00
21°
1013.7 hPa
24%
20.9°
2
Windvlaag: -0.2 m/s
46%
06:00
21°
1013.6 hPa
29%
20.8°
3
Windvlaag: -0.3 m/s
41%
07:00
22°
1013.9 hPa
30%
21.5°
3
Windvlaag: -0.3 m/s
44%
08:00
23°
1014.0 hPa
31%
21.3°
3
Windvlaag: -0.6 m/s
40%
09:00
24°
1013.9 hPa
26%
21.6°
3
Windvlaag: 0.6 m/s
40%
10:00
25°
1014.2 hPa
26%
21.6°
3
Windvlaag: 0.5 m/s
44%
11:00
25°
1014.5 hPa
22%
21.7°
4
Windvlaag: 0.5 m/s
42%
12:00
26°
1014.2 hPa 3.6 mm
28%
21.5°
4
Windvlaag: 0.6 m/s
45% warningclass
13:00
26°
1014.0 hPa 3.7 mm
31%
21.8°
4
Windvlaag: 0.5 m/s
65% warningclass
14:00
25°
1013.6 hPa
38%
21.9°
4
Windvlaag: 0.6 m/s
69%
15:00
25°
1013.5 hPa 4.8 mm
87%
21.3°
4
Windvlaag: 0.4 m/s
67% warningclass
16:00
25°
1013.1 hPa 4.7 mm
93%
20.7°
4
Windvlaag: 0.4 m/s
67%
17:00
25°
1012.7 hPa 5.0 mm
94%
21.6°
5
Windvlaag: 0.5 m/s
65% warningclass
18:00
24°
1013.1 hPa 4.8 mm
93%
21.9°
5
Windvlaag: 0.7 m/s
75% warningclass
19:00
23°
1012.7 hPa 4.8 mm
91%
21.7°
4
Windvlaag: 0.6 m/s
50% warningclass
20:00
23°
1013.1 hPa 4.6 mm
93%
21.6°
4
Windvlaag: 0.5 m/s
65% warningclass
21:00
22°
1013.2 hPa
47%
21.5°
4
Windvlaag: 2.7 m/s
69%
22:00
22°
1013.3 hPa
33%
21.5°
4
Windvlaag: 4.5 m/s
74%
23:00
22°
1013.3 hPa
33%
21.5°
4
Windvlaag: 3.4 m/s
72%
 06:21     19:38    Daglengte: 13:17 Vrijdag 24 Aug
00:00
22°
1013.2 hPa
37%
21.4°
4
Windvlaag: 4.6 m/s
62%
01:00
22°
1013.2 hPa
36%
21.3°
4
Windvlaag: 3.3 m/s
43%
02:00
22°
1013.0 hPa
36%
21.3°
4
Windvlaag: 0.4 m/s
42%
03:00
22°
1012.9 hPa   21.4°
5
Windvlaag: 0 m/s
89%
Temp/Neerslag /Baro Onweer/Dauwpunt
    Temp Baro Neerslag Dauwpunt Wind Bewolking  
 06:19     19:42    Daglengte: 13:23 Vandaag
05:00
21°
1011.8 hPa   20.4°
2
11%
08:00
23°
1012.9 hPa   21.3°
1
36%
11:00
25°
1013.8 hPa 1.3 mm 21.3°
2
49% warningclass
14:00
25°
1013.3 hPa 1.8 mm 22.1°
3
59% warningclass
17:00
25°
1012.6 hPa 7.8 mm 21.5°
2
61% warningclass
20:00
23°
1012.8 hPa 4.1 mm 21.5°
1
36%
23:00
22°
1013.6 hPa   20.9°
1
26%
 06:20     19:41    Daglengte: 13:21 Morgen
02:00
21°
1013.8 hPa   20.4°
2
43%
05:00
21°
1013.2 hPa   19.9°
1
35%
08:00
23°
1014.3 hPa   20.4°
2
39%
11:00
24°
1015.0 hPa 3.6 mm 20.5°
2
56%
14:00
25°
1014.4 hPa 5.9 mm 20.9°
2
58% warningclass
17:00
24°
1014.1 hPa 7.2 mm 21.0°
2
51% warningclass
20:00
23°
1013.9 hPa 4.2 mm 20.5°
1
28%
23:00
22°
1014.9 hPa   21.6°
1
29%
 06:20     19:40    Daglengte: 13:20 Donderdag 23 Aug
02:00
22°
1014.4 hPa   21.4°
2
27%
05:00
21°
1013.7 hPa   20.9°
2
46%
08:00
23°
1014.0 hPa   21.3°
3
40%
11:00
25°
1014.5 hPa   21.7°
4
42%
14:00
25°
1013.6 hPa 7.2 mm 21.9°
4
69%
17:00
25°
1012.7 hPa 14.5 mm 21.6°
5
65% warningclass
20:00
23°
1013.1 hPa 14.3 mm 21.6°
4
65% warningclass
23:00
22°
1013.3 hPa   21.5°
4
72%
 06:21     19:38    Daglengte: 13:17 Vrijdag 24 Aug
02:00
22°
1013.0 hPa   21.3°
4
42%
05:00
22°
1012.8 hPa 0.6 mm 21.0°
5
86%
08:00
22°
1012.8 hPa 0.6 mm 20.7°
5
90%
11:00
24°
1013.0 hPa 0.3 mm 21.2°
5
76%
14:00
24°
1013.1 hPa 1.3 mm 21.7°
5
62%
17:00
24°
1012.6 hPa 1.4 mm 21.3°
5
53%
20:00
23°
1012.2 hPa 1.4 mm 21.1°
5
43%
23:00
23°
1012.3 hPa   21.0°
4
47%
 06:22     19:37    Daglengte: 13:15 Zaterdag 25 Aug
02:00
22°
1012.2 hPa   21.0°
4
50%
05:00
23°
1012.4 hPa 0.3 mm 21.1°
4
49%
08:00
23°
1012.8 hPa 0.3 mm 21.2°
4
48%
11:00
25°
1012.6 hPa   21.5°
5
34%
14:00
26°
1012.4 hPa   21.7°
5
20%
17:00
25°
1011.9 hPa   21.5°
4
17%
20:00
24°
1011.5 hPa   21.4°
3
14%
23:00
24°
1011.4 hPa   21.1°
3
9%
 06:23     19:35    Daglengte: 13:12 Zondag 26 Aug
02:00
23°
1011.1 hPa   20.6°
3
4%
05:00
24°
1011.1 hPa   20.5°
3
8%
08:00
24°
1011.2 hPa   20.3°
3
12%
11:00
26°
1010.9 hPa   20.5°
4
19%
14:00
27°
1010.5 hPa   20.5°
5
26%
17:00
26°
1009.9 hPa   21.6°
4
20%
20:00
24°
1009.3 hPa   22.5°
3
15%
23:00
24°
1009.2 hPa   22.5°
3
15%
 06:24     19:34    Daglengte: 13:10 Maandag 27 Aug
02:00
24°
1009.0 hPa   22.4°
3
14%
05:00
23°
1009.4 hPa   21.5°
4
28%
08:00
23°
1010.0 hPa   20.8°
4
42%
11:00
24°
1010.6 hPa 0.1 mm 19.0°
5
54%
14:00
25°
1011.2 hPa 0.1 mm 16.4°
6
67%
17:00
24°
1011.4 hPa   17.1°
5
39%
20:00
23°
1011.7 hPa   17.8°
3
11%
23:00
22°
1012.3 hPa   18.2°
3
13%
 06:25     19:33    Daglengte: 13:08 Dinsdag 28 Aug
02:00
22°
1012.6 hPa   18.6°
2
17%
08:00
23°
1014.3 hPa   16.1°
3
1%
14:00
26°
1014.9 hPa   16.9°
6
1%
20:00
23°
1014.9 hPa   17.2°
4
0%
 06:26     19:31    Daglengte: 13:05 Woensdag 29 Aug
02:00
22°
1015.5 hPa   18.6°
3
1%
08:00
23°
1015.8 hPa   18.7°
3
13%
14:00
26°
1015.7 hPa   18.0°
5
26%
20:00
23°
1014.7 hPa   18.5°
4
0%
 06:26     19:30    Daglengte: 13:04 Donderdag 30 Aug
02:00
22°
1014.7 hPa   19.1°
3
1%
08:00
23°
1014.6 hPa   18.6°
2
14%
14:00
25°
1015.1 hPa   16.9°
5
35%
20:00
23°
1015.9 hPa   17.4°
1
0%
 06:27     19:28    Daglengte: 13:01 Vrijdag 31 Aug
02:00
23°
1016.3 hPa 0.1 mm 18.9°
2
8%
08:00
24°
1016.1 hPa   18.8°
2
7%
14:00
28°
1016.5 hPa 0.2 mm 18.1°
1
8%
20:00
25°
1016.3 hPa 0.4 mm 19.2°
2
9%
 06:28     19:27    Daglengte: 12:59 Zaterdag 01 Sep
02:00
23°
1016.9 hPa 0.2 mm 19.2°
2
9%
08:00
24°
1016.8 hPa 0.2 mm 19.2°
2
5%
14:00
28°
1017.0 hPa 0.2 mm 18.2°
2
2%
20:00
25°
1016.4 hPa 0.2 mm 19.3°
2
6%
 06:29     19:25    Daglengte: 12:56 Zondag 02 Sep
02:00
23°
1016.6 hPa   19.0°
3
1%
08:00
24°
1016.5 hPa   18.7°
3
0%
14:00
28°
1016.4 hPa 0.2 mm 18.0°
2
3%
20:00
25°
1015.8 hPa 0.3 mm 18.9°
2
4%
 06:30     19:24    Daglengte: 12:54 Maandag 03 Sep
02:00
23°
1015.9 hPa 0.1 mm 19.0°
2
4%
08:00
24°
1015.9 hPa 0.3 mm 18.9°
2
5%
14:00
28°
1015.8 hPa 0.4 mm 18.0°
1
4%
20:00
25°
1015.2 hPa 0.2 mm 19.4°
1
8%
 06:31     19:22    Daglengte: 12:51 Dinsdag 04 Sep
02:00
23°
1015.4 hPa 0.3 mm 19.5°
2
6%
08:00
24°
1015.4 hPa 0.3 mm 19.2°
2
7%
14:00
28°
1015.4 hPa 0.3 mm 18.3°
1
4%
20:00
25°
1015.2 hPa 0.8 mm 19.2°
1
12%
 06:32     19:21    Daglengte: 12:49 Woensdag 05 Sep
02:00
23°
1015.5 hPa 0.3 mm 19.1°
1
8%
  CAPE Lifted Index Hail Supercell Tornado SRH 3km CL BTM PRES CL TOP PRES Swiss DWD icon SMHI TS
 06:19     19:42    Daglengte: 13:23 Vandaag
04:00 650 J/kg -2.9 K 0 % 0 % 0 % 0 m²/s² 0 0 -0.83 2
05:00 692 J/kg -2.8 K 0 % 0 % 0 % 0 m²/s² 0 0 -1.06 3
06:00 752 J/kg -2.9 K 0 % 0 % 0 % 0 m²/s² 0 0 -1.67 3
07:00 859 J/kg -3.2 K 0 % 0 % 0 % 0 m²/s² 0 0 -1.94 3
08:00 1264 J/kg -4.4 K 0 % 0 % 0 % 0 m²/s² 0 0 -2.9 3
09:00 1526 J/kg -5.2 K 0 % 0 % 0 % 0 m²/s² 0 0 -3.7 3
10:00 1464 J/kg -5.2 K 0 % 0 % 0 % 0 m²/s² 0 0 -3.58 3
11:00 1575 J/kg -5.6 K 0 % 0 % 0 % 0 m²/s² 0 0 -4.1 3
12:00 1670 J/kg -6.0 K 0 % 0 % 0 % 0 m²/s² 0 0 -4.56 3
13:00 1769 J/kg -6.1 K 0 % 0 % 0 % 0 m²/s² 0 0 -4.72 3
14:00 1814 J/kg -6.1 K 0 % 0 % 0 % 0 m²/s² 0 0 -4.93 3
15:00 1985 J/kg -6.6 K 0 % 0 % 0 % 0 m²/s² 0 0 -5.49 3
16:00 1965 J/kg -6.4 K 0 % 0 % 0 % 0 m²/s² 0 0 -4.78 3
17:00 1582 J/kg -5.2 K 0 % 0 % 0 % 0 m²/s² 0 0 -3.34 3
18:00 1243 J/kg -4.4 K 0 % 0 % 0 % 0 m²/s² 0 0 -2.66 80
19:00 1256 J/kg -4.9 K 0 % 0 % 0 % 0 m²/s² 0 0 -3.34 3
20:00 1416 J/kg -5.1 K 0 % 0 % 0 % 0 m²/s² 0 0 -3.54 3
21:00 1471 J/kg -5.2 K 0 % 0 % 0 % 0 m²/s² 0 0 -3.52 80
22:00 1635 J/kg -5.6 K 0 % 0 % 0 % 0 m²/s² 0 0 -3.65 3
23:00 1706 J/kg -5.8 K 0 % 0 % 0 % 0 m²/s² 0 0 -3.73 3
 06:20     19:41    Daglengte: 13:21 Morgen
00:00 1594 J/kg -5.7 K 0 % 0 % 0 % 0 m²/s² 0 0 -3.57 3
01:00 1567 J/kg -5.7 K 0 % 0 % 0 % 0 m²/s² 0 0 -3.21 3
02:00 1859 J/kg -6.3 K 0 % 0 % 0 % 0 m²/s² 0 0 -3.75 3
03:00 1861 J/kg -6.5 K 0 % 0 % 0 % 0 m²/s² 0 0 -3.71 3
04:00 1795 J/kg -6.0 K 0 % 0 % 0 % 0 m²/s² 0 0 -3.27 3
05:00 1314 J/kg -4.9 K 0 % 0 % 0 % 0 m²/s² 0 0 -2.11 3
06:00 786 J/kg -3.4 K 0 % 0 % 0 % 0 m²/s² 0 0 -0.61 3
07:00 633 J/kg -2.6 K 0 % 0 % 0 % 0 m²/s² 0 0 0.46 3
08:00 1090 J/kg -4.5 K 0 % 0 % 0 % 0 m²/s² 0 0 -1.35 3
09:00 1379 J/kg -5.3 K 0 % 0 % 0 % 0 m²/s² 0 0 -2.66 3
10:00 1192 J/kg -4.5 K 0 % 0 % 0 % 0 m²/s² 0 0 -1.86 3
11:00 1097 J/kg -4.2 K 0 % 0 % 0 % 0 m²/s² 0 0 -1.86 3
12:00 976 J/kg -3.9 K 0 % 0 % 0 % 0 m²/s² 0 0 -1.5 3
13:00 977 J/kg -3.9 K 0 % 0 % 0 % 0 m²/s² 0 0 -1.98 95
14:00 1129 J/kg -4.5 K 0 % 0 % 0 % 0 m²/s² 0 0 -2.07 80
15:00 1321 J/kg -5.0 K 0 % 0 % 0 % 0 m²/s² 0 0 -2.57 3
16:00 1437 J/kg -5.4 K 0 % 0 % 0 % 0 m²/s² 0 0 -3.39 3
17:00 1457 J/kg -5.4 K 0 % 0 % 0 % 0 m²/s² 0 0 -2.97 3
18:00 712 J/kg -3.6 K 0 % 0 % 0 % 0 m²/s² 0 0 -1.32 3
19:00 503 J/kg -2.5 K 0 % 0 % 0 % 0 m²/s² 0 0 -0.16 3
20:00 181 J/kg -1.0 K 0 % 0 % 0 % 0 m²/s² 0 0 1.58 3
21:00 201 J/kg -1.1 K 0 % 0 % 0 % 0 m²/s² 0 0 1.09 3
22:00 157 J/kg -1.0 K 0 % 0 % 0 % 0 m²/s² 0 0 0.98 3
23:00 190 J/kg -0.9 K 0 % 0 % 0 % 0 m²/s² 0 0 1.02 3
 06:20     19:40    Daglengte: 13:20 Donderdag 23 Aug
00:00 450 J/kg -2.0 K 0 % 0 % 0 % 0 m²/s² 0 0 -0.08 3
01:00 804 J/kg -3.5 K 0 % 0 % 0 % 0 m²/s² 0 0 -1.31 3
02:00 945 J/kg -4.1 K 0 % 0 % 0 % 0 m²/s² 0 0 -1.91 3
03:00 660 J/kg -3.0 K 0 % 0 % 0 % 0 m²/s² 0 0 -0.93 3
04:00 305 J/kg -1.7 K 0 % 0 % 0 % 0 m²/s² 0 0 0.16 3
05:00 227 J/kg -1.7 K 0 % 0 % 0 % 0 m²/s² 0 0 0.28 3
06:00 329 J/kg -2.1 K 0 % 0 % 0 % 0 m²/s² 0 0 -0.24 3
07:00 483 J/kg -2.7 K 0 % 0 % 0 % 0 m²/s² 0 0 -0.72 3
08:00 926 J/kg -4.1 K 0 % 0 % 0 % 0 m²/s² 0 0 -2.3 3
09:00 1316 J/kg -5.0 K 0 % 0 % 0 % 0 m²/s² 0 0 -3.26 3
10:00 1625 J/kg -5.9 K 0 % 0 % 0 % 0 m²/s² 0 0 -4.16 3
11:00 1950 J/kg -6.6 K 0 % 0 % 0 % 0 m²/s² 0 0 -4.62 3
12:00 2255 J/kg -7.8 K 0 % 0 % 0 % 0 m²/s² 0 0 -5.46 3
13:00 2494 J/kg -8.5 K 0 % 0 % 0 % 0 m²/s² 0 0 -5.86 3
14:00 2089 J/kg -6.9 K 0 % 0 % 0 % 0 m²/s² 0 0 -5.22 3
15:00 1643 J/kg -5.8 K 0 % 0 % 0 % 0 m²/s² 0 0 -4.63 3
16:00 260 J/kg -2.1 K 0 % 0 % 0 % 0 m²/s² 0 0 -0.84 3
17:00 1629 J/kg -6.4 K 0 % 0 % 0 % 0 m²/s² 0 0 -5.14 3
18:00 2112 J/kg -7.6 K 0 % 0 % 0 % 0 m²/s² 0 0 -5.92 3
19:00 2293 J/kg -7.8 K 0 % 0 % 0 % 0 m²/s² 0 0 -6.06 3
20:00 2282 J/kg -7.5 K 0 % 0 % 0 % 0 m²/s² 0 0 -5.82 3
21:00 2095 J/kg -7.4 K 0 % 0 % 0 % 0 m²/s² 0 0 -5.21 3
22:00 2362 J/kg -7.4 K 0 % 0 % 0 % 0 m²/s² 0 0 -5.06 3
23:00 2369 J/kg -7.7 K 0 % 0 % 0 % 0 m²/s² 0 0 -5.15 3
 06:21     19:38    Daglengte: 13:17 Vrijdag 24 Aug
00:00 2100 J/kg -7.7 K 0 % 0 % 0 % 0 m²/s² 0 0 -5.36 2
01:00 1957 J/kg -6.8 K 0 % 0 % 0 % 0 m²/s² 0 0 -4.88 2
02:00 2049 J/kg -6.8 K 0 % 0 % 0 % 0 m²/s² 0 0 -4.73 2
03:00 0 J/kg 0.0 K 0 % 0 % 0 % 0 m²/s² 0 0 13.83
Temp Baro Wind Neerslag
  EWN Forecast EWN WRFDA DWD ICON FMI HIRLAM MET Norway GFS
 06:19     19:42    Daglengte: 13:23 Vandaag
05:00 21.2° 1011.8 hPa 1.5 m/s 0.0 mm 21.9° 1012.6 hPa 2.4 m/s 5.4 mm 20.9° 1011.4 hPa 1.2 m/s -1.4 mm 21.0° 1011.8 hPa 0.6 m/s 0.0 mm 22.8° 1011.7 hPa 1.9 m/s 0.6 mm 21.9° 1011.5 hPa 0.7 m/s
08:00 23.3° 1012.9 hPa 1.0 m/s 0.0 mm 25.2° 1013.8 hPa 1.7 m/s 8.2 mm 22.3° 1012.6 hPa 0.1 m/s 0.0 mm 23.7° 1012.5 hPa 1.0 m/s 0.0 mm 23.6° 1012.9 hPa 0.9 m/s 3.6 mm 24.6° 1012.4 hPa 1.1 m/s
11:00 24.7° 1013.8 hPa 2.4 m/s 1.3 mm 27.2° 1014.6 hPa 1.6 m/s 8.8 mm 24.4° 1013.7 hPa 1.7 m/s 0.0 mm 25.8° 1012.9 hPa 2.3 m/s 0.0 mm 24.4° 1013.8 hPa 2.7 m/s 2.2 mm 28.9° 1013.0 hPa 2.0 m/s
14:00 25.0° 1013.3 hPa 2.7 m/s 1.8 mm 26.7° 1014.7 hPa 1.3 m/s 14.3 mm 24.5° 1013.1 hPa 2.4 m/s 0.0 mm 25.9° 1012.6 hPa 2.9 m/s 0.0 mm 25.0° 1013.2 hPa 3.1 m/s 0.4 mm 30.1° 1012.8 hPa 2.3 m/s
17:00 24.7° 1012.6 hPa 2.2 m/s 7.8 mm 28.1° 1013.2 hPa 3.1 m/s 22.0 mm 24.5° 1012.4 hPa 2.1 m/s 0.0 mm 26.1° 1011.9 hPa 3.1 m/s 0.0 mm 24.5° 1012.6 hPa 1.6 m/s 3.1 mm 28.2° 1012.0 hPa 1.7 m/s
20:00 23.4° 1012.8 hPa 1.4 m/s 4.1 mm 24.2° 1014.3 hPa 1.0 m/s 23.9 mm 22.3° 1012.7 hPa 1.1 m/s 1.1 mm 23.7° 1012.4 hPa 2.3 m/s 0.0 mm 23.8° 1012.6 hPa 1.5 m/s 0.7 mm 23.9° 1012.4 hPa 1.4 m/s
23:00 22.0° 1013.6 hPa 1.0 m/s 0.0 mm 23.3° 1015.1 hPa 1.2 m/s 23.9 mm 21.7° 1013.3 hPa 0.9 m/s 0.0 mm 21.9° 1013.5 hPa 1.4 m/s 0.0 mm 23.2° 1013.5 hPa 1.0 m/s 0.6 mm 22.8° 1013.6 hPa 1.3 m/s
 06:20     19:41    Daglengte: 13:21 Morgen
02:00 21.3° 1013.8 hPa 1.5 m/s 0.0 mm 22.0° 1015.6 hPa 0.9 m/s 23.9 mm 21.3° 1013.6 hPa 0.9 m/s 0.0 mm 20.8° 1013.4 hPa 1.0 m/s 0.0 mm 22.4° 1013.7 hPa 2.2 m/s 3.6 mm 22.4° 1013.7 hPa 1.1 m/s
05:00 21.0° 1013.2 hPa 1.3 m/s 0.0 mm 21.4° 1014.6 hPa 2.2 m/s 24.0 mm 21.1° 1012.8 hPa 0.7 m/s 0.0 mm 20.7° 1013.0 hPa 0.8 m/s 0.0 mm 22.4° 1013.1 hPa 1.1 m/s 0.4 mm 22.0° 1013.2 hPa 1.2 m/s
08:00 22.5° 1014.3 hPa 1.6 m/s 0.0 mm 25.6° 1015.2 hPa 1.0 m/s 24.0 mm 21.6° 1013.9 hPa 0.6 m/s 0.0 mm 23.0° 1013.6 hPa 0.9 m/s 0.0 mm 22.7° 1014.5 hPa 2.2 m/s 3.6 mm 24.3° 1013.8 hPa 1.6 m/s
11:00 24.3° 1015.0 hPa 2.5 m/s 3.6 mm 27.2° 1016.5 hPa 1.6 m/s 24.1 mm 22.8° 1014.6 hPa 2.1 m/s 0.8 mm 26.8° 1013.9 hPa 1.4 m/s 0.0 mm 23.8° 1015.1 hPa 3.6 m/s 1.6 mm 28.0° 1014.5 hPa 2.0 m/s
14:00 24.7° 1014.4 hPa 2.1 m/s 5.9 mm 27.6° 1016.0 hPa 1.7 m/s 26.2 mm 23.1° 1014.2 hPa 2.1 m/s 1.4 mm 27.3° 1013.3 hPa 0.5 m/s 0.0 mm 24.4° 1014.4 hPa 4.0 m/s 2.6 mm 28.5° 1014.3 hPa 2.1 m/s
17:00 23.9° 1014.1 hPa 1.9 m/s 7.2 mm 26.1° 1016.0 hPa 4.4 m/s 29.2 mm 23.5° 1013.3 hPa 1.8 m/s 1.1 mm 26.6° 1012.9 hPa 0.6 m/s 0.0 mm 23.3° 1014.2 hPa 2.4 m/s 6.8 mm 27.4° 1013.6 hPa 1.6 m/s
20:00 23.1° 1013.9 hPa 0.7 m/s 4.2 mm 24.2° 1015.2 hPa 1.9 m/s 31.6 mm 22.1° 1013.7 hPa 1.0 m/s 0.7 mm 24.4° 1013.5 hPa 0.6 m/s 0.0 mm 23.1° 1013.8 hPa 0.4 m/s 0.4 mm 23.6° 1014.4 hPa 1.2 m/s
23:00 22.5° 1014.9 hPa 0.8 m/s 0.0 mm 23.2° 1017.4 hPa 1.5 m/s 31.6 mm 21.7° 1014.1 hPa 0.6 m/s 0.0 mm 22.9° 1014.8 hPa 0.6 m/s 0.0 mm 22.9° 1015.3 hPa 0.7 m/s
 06:20     19:40    Daglengte: 13:20 Donderdag 23 Aug
02:00 21.5° 1014.4 hPa 1.8 m/s 0.0 mm 21.7° 1016.2 hPa 1.7 m/s 31.6 mm 21.3° 1013.7 hPa 1.3 m/s 0.0 mm 22.4° 1014.3 hPa 1.8 m/s 1.1 mm 22.7° 1014.5 hPa 0.9 m/s
05:00 21.4° 1013.7 hPa 2.3 m/s 0.0 mm 21.6° 1015.2 hPa 2.3 m/s 31.6 mm 21.3° 1012.7 hPa 1.3 m/s 0.0 mm 22.3° 1013.7 hPa 2.4 m/s 0.4 mm 22.4° 1013.6 hPa 1.1 m/s
08:00 22.9° 1014.0 hPa 2.7 m/s 0.0 mm 25.2° 1015.6 hPa 2.7 m/s 31.6 mm 22.1° 1013.2 hPa 0.7 m/s 0.0 mm 23.2° 1013.9 hPa 3.6 m/s 0.0 mm 24.1° 1013.7 hPa 1.1 m/s
11:00 25.2° 1014.5 hPa 3.6 m/s 0.0 mm 26.9° 1016.4 hPa 3.7 m/s 31.6 mm 24.8° 1013.6 hPa 1.7 m/s 0.0 mm 25.0° 1014.4 hPa 4.0 m/s 0.0 mm 29.4° 1014.3 hPa 0.1 m/s
14:00 25.3° 1013.6 hPa 4.2 m/s 7.2 mm 24.7° 1015.0 hPa 2.8 m/s 33.2 mm 26.9° 1012.5 hPa 2.9 m/s 0.0 mm 25.0° 1013.7 hPa 5.5 m/s 0.4 mm 29.9° 1013.8 hPa 1.0 m/s
17:00 24.5° 1012.7 hPa 4.6 m/s 14.5 mm 26.1° 1014.9 hPa 3.3 m/s 38.5 mm 24.1° 1012.4 hPa 3.5 m/s 2.4 mm 24.4° 1012.5 hPa 5.7 m/s 0.0 mm 27.8° 1013.0 hPa 2.1 m/s
20:00 22.6° 1013.1 hPa 3.8 m/s 14.3 mm 23.7° 1014.8 hPa 1.2 m/s 39.1 mm 22.3° 1012.3 hPa 2.7 m/s 1.8 mm 22.5° 1013.0 hPa 5.2 m/s 0.0 mm 24.3° 1013.2 hPa 1.9 m/s
23:00 22.4° 1013.3 hPa 3.6 m/s 0.0 mm 23.3° 1015.4 hPa 1.3 m/s 39.1 mm 22.0° 1013.1 hPa 2.4 m/s 0.0 mm 22.4° 1013.0 hPa 4.9 m/s 23.1° 1014.0 hPa 2.0 m/s
 06:21     19:38    Daglengte: 13:17 Vrijdag 24 Aug
02:00 22.1° 1013.0 hPa 3.8 m/s 0.0 mm 22.1° 1014.5 hPa 1.8 m/s 39.2 mm 21.6° 1012.2 hPa 3.3 m/s 0.0 mm 22.2° 1013.0 hPa 4.6 m/s 22.9° 1013.5 hPa 2.3 m/s
05:00 22.2° 1012.8 hPa 4.5 m/s 0.6 mm 22.2° 1012.9 hPa 4.7 m/s 22.4° 1012.3 hPa 2.5 m/s 0.6 mm
08:00 22.4° 1012.8 hPa 4.6 m/s 0.6 mm 22.2° 1012.8 hPa 4.8 m/s 24.5° 1012.5 hPa 2.4 m/s 0.6 mm
11:00 23.5° 1013.0 hPa 4.8 m/s 0.3 mm 23.1° 1013.0 hPa 4.9 m/s 27.9° 1013.4 hPa 2.7 m/s 0.3 mm
14:00 24.5° 1013.1 hPa 5.0 m/s 1.3 mm 24.1° 1013.1 hPa 5.1 m/s 28.6° 1012.7 hPa 3.4 m/s 1.3 mm
17:00 23.8° 1012.6 hPa 4.8 m/s 1.4 mm 23.5° 1012.7 hPa 4.9 m/s 27.6° 1012.0 hPa 3.9 m/s 1.4 mm
20:00 23.0° 1012.2 hPa 4.6 m/s 1.4 mm 22.9° 1012.2 hPa 4.7 m/s 23.9° 1012.2 hPa 3.1 m/s 1.4 mm
23:00 22.7° 1012.3 hPa 4.4 m/s 0.0 mm 22.7° 1012.2 hPa 4.5 m/s 22.8° 1013.0 hPa 2.8 m/s 0.0 mm
 06:22     19:37    Daglengte: 13:15 Zaterdag 25 Aug
02:00 22.5° 1012.2 hPa 4.1 m/s 0.0 mm 22.5° 1012.2 hPa 4.3 m/s 22.4° 1012.0 hPa 2.2 m/s 0.1 mm
05:00 22.7° 1012.4 hPa 4.3 m/s 0.3 mm 22.8° 1012.5 hPa 4.4 m/s 22.4° 1011.3 hPa 2.7 m/s 0.3 mm
08:00 23.1° 1012.8 hPa 4.4 m/s 0.3 mm 23.0° 1012.9 hPa 4.5 m/s 24.6° 1011.9 hPa 3.1 m/s 0.3 mm
11:00 24.8° 1012.6 hPa 4.6 m/s 0.0 mm 24.5° 1012.7 hPa 4.8 m/s 28.3° 1012.0 hPa 2.9 m/s 0.0 mm
14:00 26.3° 1012.4 hPa 5.0 m/s 0.0 mm 26.0° 1012.5 hPa 5.1 m/s 29.8° 1011.0 hPa 3.3 m/s 0.0 mm
17:00 25.4° 1011.9 hPa 4.2 m/s 0.0 mm 25.1° 1012.0 hPa 4.2 m/s 28.8° 1010.4 hPa 4.0 m/s 0.0 mm
20:00 24.1° 1011.5 hPa 3.3 m/s 0.0 mm 24.1° 1011.6 hPa 3.3 m/s 24.4° 1010.7 hPa 3.2 m/s 0.0 mm
23:00 23.6° 1011.4 hPa 3.3 m/s 0.0 mm 23.6° 1011.4 hPa 3.2 m/s 23.4° 1011.4 hPa 3.4 m/s 0.0 mm
 06:23     19:35    Daglengte: 13:12 Zondag 26 Aug
02:00 23.2° 1011.1 hPa 3.2 m/s 0.0 mm 23.2° 1011.1 hPa 3.2 m/s 22.6° 1010.7 hPa 2.9 m/s 0.0 mm
05:00 23.5° 1011.1 hPa 3.2 m/s 0.0 mm 23.6° 1011.2 hPa 3.2 m/s 22.2° 1010.2 hPa 2.5 m/s 0.0 mm
08:00 24.1° 1011.2 hPa 3.2 m/s 0.0 mm 24.1° 1011.2 hPa 3.3 m/s 24.7° 1010.8 hPa 2.3 m/s 0.0 mm
11:00 25.8° 1010.9 hPa 4.2 m/s 0.0 mm 25.6° 1010.9 hPa 4.2 m/s 28.6° 1011.2 hPa 4.6 m/s 0.0 mm
14:00 27.2° 1010.5 hPa 5.0 m/s 0.0 mm 27.0° 1010.5 hPa 5.0 m/s 29.3° 1010.1 hPa 5.4 m/s 0.0 mm
17:00 25.8° 1009.9 hPa 4.5 m/s 0.0 mm 25.6° 1009.9 hPa 4.2 m/s 28.5° 1009.4 hPa 7.2 m/s 0.0 mm
20:00 24.2° 1009.3 hPa 3.5 m/s 0.0 mm 24.2° 1009.3 hPa 3.5 m/s 24.6° 1009.6 hPa 3.2 m/s 0.0 mm
23:00 24.1° 1009.2 hPa 3.1 m/s 0.0 mm 24.1° 1009.1 hPa 3.2 m/s 23.8° 1010.3 hPa 1.4 m/s 0.0 mm
 06:24     19:34    Daglengte: 13:10 Maandag 27 Aug
02:00 24.1° 1009.0 hPa 2.8 m/s 0.0 mm 24.1° 1008.9 hPa 3.0 m/s 23.7° 1009.6 hPa 0.7 m/s 0.0 mm
05:00 23.5° 1009.4 hPa 3.6 m/s 0.0 mm 23.5° 1009.5 hPa 3.7 m/s 23.5° 1009.2 hPa 1.9 m/s 0.0 mm
08:00 23.1° 1010.0 hPa 4.4 m/s 0.0 mm 22.9° 1010.0 hPa 4.4 m/s 25.6° 1009.7 hPa 4.4 m/s 0.0 mm
11:00 24.2° 1010.6 hPa 5.3 m/s 0.1 mm 23.9° 1010.6 hPa 5.3 m/s 27.3° 1010.6 hPa 5.9 m/s 0.1 mm
14:00 25.2° 1011.2 hPa 6.2 m/s 0.1 mm 24.9° 1011.3 hPa 6.2 m/s 27.9° 1010.7 hPa 6.2 m/s 0.1 mm
17:00 24.1° 1011.4 hPa 4.9 m/s 0.0 mm 23.9° 1011.5 hPa 4.8 m/s 26.4° 1010.9 hPa 6.0 m/s 0.0 mm
20:00 22.9° 1011.7 hPa 3.4 m/s 0.0 mm 22.9° 1011.6 hPa 3.3 m/s 22.9° 1012.5 hPa 4.5 m/s 0.0 mm
23:00 22.4° 1012.3 hPa 2.8 m/s 0.0 mm 22.4° 1012.1 hPa 2.8 m/s 21.9° 1014.6 hPa 2.6 m/s 0.0 mm
 06:25     19:33    Daglengte: 13:08 Dinsdag 28 Aug
02:00 21.9° 1012.6 hPa 2.3 m/s 0.0 mm 21.9° 1012.6 hPa 2.3 m/s
08:00 22.8° 1014.3 hPa 3.0 m/s 0.0 mm 22.7° 1014.1 hPa 3.1 m/s 23.4° 1016.6 hPa 2.0 m/s 0.0 mm
14:00 25.7° 1014.9 hPa 5.5 m/s 0.0 mm 25.5° 1014.7 hPa 5.5 m/s 27.8° 1017.0 hPa 5.5 m/s 0.0 mm
20:00 22.9° 1014.9 hPa 3.5 m/s 0.0 mm 23.0° 1014.7 hPa 3.5 m/s 22.1° 1017.4 hPa 3.9 m/s 0.0 mm
 06:26     19:31    Daglengte: 13:05 Woensdag 29 Aug
02:00 22.0° 1015.5 hPa 2.7 m/s 0.0 mm 22.0° 1015.3 hPa 2.7 m/s 21.5° 1017.6 hPa 2.9 m/s 0.0 mm
08:00 22.9° 1015.8 hPa 2.7 m/s 0.0 mm 22.9° 1015.7 hPa 2.6 m/s 23.4° 1017.2 hPa 3.3 m/s 0.0 mm
14:00 25.6° 1015.7 hPa 5.1 m/s 0.0 mm 25.4° 1015.6 hPa 5.2 m/s 27.6° 1016.8 hPa 4.2 m/s 0.0 mm
20:00 23.0° 1014.7 hPa 3.8 m/s 0.0 mm 23.1° 1014.5 hPa 3.8 m/s 22.1° 1016.5 hPa 3.3 m/s 0.0 mm
 06:26     19:30    Daglengte: 13:04 Donderdag 30 Aug
02:00 21.8° 1014.7 hPa 2.8 m/s 0.0 mm 21.9° 1014.5 hPa 2.9 m/s 20.8° 1016.5 hPa 1.8 m/s 0.0 mm
08:00 22.8° 1014.6 hPa 2.5 m/s 0.0 mm 22.7° 1014.5 hPa 2.6 m/s 23.5° 1016.0 hPa 0.9 m/s 0.0 mm
14:00 25.3° 1015.1 hPa 4.7 m/s 0.0 mm 24.9° 1015.0 hPa 5.0 m/s 29.1° 1015.9 hPa 1.8 m/s 0.0 mm
20:00 23.0° 1015.9 hPa 1.5 m/s 0.0 mm 23.0° 1015.9 hPa 1.5 m/s 0.0 mm
 06:27     19:28    Daglengte: 13:01 Vrijdag 31 Aug
02:00 22.9° 1016.3 hPa 2.0 m/s 0.1 mm
08:00 24.3° 1016.1 hPa 2.2 m/s 0.0 mm
14:00 28.2° 1016.5 hPa 1.3 m/s 0.2 mm
20:00 24.9° 1016.3 hPa 1.9 m/s 0.4 mm
 06:28     19:27    Daglengte: 12:59 Zaterdag 01 Sep
02:00 23.0° 1016.9 hPa 2.1 m/s 0.2 mm
08:00 24.2° 1016.8 hPa 2.5 m/s 0.2 mm
14:00 28.3° 1017.0 hPa 1.6 m/s 0.2 mm
20:00 25.0° 1016.4 hPa 2.2 m/s 0.2 mm
 06:29     19:25    Daglengte: 12:56 Zondag 02 Sep
02:00 23.0° 1016.6 hPa 2.6 m/s 0.0 mm
08:00 24.2° 1016.5 hPa 2.8 m/s 0.0 mm
14:00 28.4° 1016.4 hPa 2.2 m/s 0.2 mm
20:00 24.9° 1015.8 hPa 2.1 m/s 0.3 mm
 06:30     19:24    Daglengte: 12:54 Maandag 03 Sep
02:00 23.0° 1015.9 hPa 2.4 m/s 0.1 mm
08:00 24.2° 1015.9 hPa 2.3 m/s 0.3 mm
14:00 28.4° 1015.8 hPa 1.2 m/s 0.4 mm
20:00 24.9° 1015.2 hPa 1.0 m/s 0.2 mm
 06:31     19:22    Daglengte: 12:51 Dinsdag 04 Sep
02:00 23.1° 1015.4 hPa 1.5 m/s 0.3 mm
08:00 24.2° 1015.4 hPa 1.6 m/s 0.3 mm
14:00 28.1° 1015.4 hPa 0.6 m/s 0.3 mm
20:00 24.7° 1015.2 hPa 1.0 m/s 0.8 mm
 06:32     19:21    Daglengte: 12:49 Woensdag 05 Sep
02:00 22.9° 1015.5 hPa 1.4 m/s 0.3 mm
FMI Hirlam - 7.5 km EWN WRFDA - 12 km DWD ICON - 7 km GFS - 25 km Basiskaart






























































Updatetijd (Europe/Amsterdam) Resolutie Lengte Stap
FMI Hirlam 01:00, 07:00, 13:00, 19:00 7.5 km 49h 1h
EWN WRFDA 22:00, 04:00, 10:00, 16:00 12 km 73h 1h
DWD ICON 01:00, 07:00, 13:00, 19:00 7 km 75h 1h
GFS 03:15, 09:15, 15:15, 21:15 25 km 237h 3h
30+ mm
25-30 mm
20-25 mm
15-20 mm
10-15 mm
6-10 mm
4-6 mm
2-4 mm
1-2 mm
0.5-1 mm
0.2-0.5 mm
0.1-0.2 mm
30+ mm
25-30 mm
20-25 mm
15-20 mm
10-15 mm
6-10 mm
4-6 mm
2-4 mm
1-2 mm
0.5-1 mm
0.2-0.5 mm
0.1-0.2 mm
Sneeuwval
Natte sneeuw
Hagel
Vorst
30+ mm
25-30 mm
20-25 mm
15-20 mm
10-15 mm
6-10 mm
4-6 mm
2-4 mm
1-2 mm
0.5-1 mm
0.2-0.5 mm
0.1-0.2 mm
Sneeuwval
Natte sneeuw
Hagel
Vorst
Onweer
50 mm
40 mm
30 mm
26 mm
22 mm
18 mm
14 mm
10 mm
9 mm
8 mm
7 mm
6 mm
5 mm
4.5 mm
4 mm
3.5 mm
3 mm
2.5 mm
2 mm
1.5 mm
1 mm
0.8 mm
0.6 mm
0.4 mm
0.2 mm
0.05 mm
35°
30°
25°
20°
15°
10°
-5°
-10°
-15°
-20°
-25°
-30°
-35°
33> m/s
29 m/s
25 m/s
21 m/s
17 m/s
14 m/s
11 m/s
8 m/s
5 m/s
3 m/s
0 m/s
2600 J/kg
2400 J/kg
2200 J/kg
2000 J/kg
1800 J/kg
1600 J/kg
1400 J/kg
1200 J/kg
1000 J/kg
800 J/kg
600 J/kg
400 J/kg
200 J/kg
70 dBZ
65 dBZ
60 dBZ
55 dBZ
50 dBZ
45 dBZ
40 dBZ
35 dBZ
30 dBZ
25 dBZ
20 dBZ
15 dBZ
10 dBZ
5 dBZ
-1 K
-2 K
-3 K
-4 K
-5 K
-6 K
-7 K
-8 K
-9 K
950 m²/s²
900 m²/s²
850 m²/s²
800 m²/s²
750 m²/s²
700 m²/s²
650 m²/s²
600 m²/s²
550 m²/s²
500 m²/s²
450 m²/s²
400 m²/s²
350 m²/s²
300 m²/s²
250 m²/s²
200 m²/s²
150 m²/s²
100 m²/s²
46 m/s
44 m/s
42 m/s
40 m/s
38 m/s
36 m/s
34 m/s
32 m/s
30 m/s
28 m/s
26 m/s
24 m/s
22 m/s
20 m/s
16 m/s
12 m/s
8 m/s
4 m/s
30 m/s
28 m/s
26 m/s
24 m/s
22 m/s
20 m/s
18 m/s
16 m/s
14 m/s
12 m/s
10 m/s
8 m/s
6 m/s
4 m/s
2 m/s
3.0
2.8
2.6
2.4
2.2
2.0
1.8
1.6
1.4
1.2
1.0
0.8
0.6
0.4
0.2
15
14
13
12
11
10
9
8
7
6
5
4
3
2
1
90%
80%
70%
60%
50%
40%
30%
20%
10%
42
40
38
36
34
32
30
28
26
24
22
20
18
16
14
12
90+ cm
80-90 cm
70-80 cm
60-70 cm
50-60 cm
40-50 cm
30-40 cm
20-30 cm
10-20 cm
1-10 cm
Sneeuwval
Natte sneeuw
Regen
>120 mm
115 mm
110 mm
105 mm
100 mm
95 mm
90 mm
85 mm
80 mm
75 mm
70 mm
65 mm
60 mm
55 mm
50 mm
45 mm
45 mm
40 mm
35 mm
30 mm
25 mm
20 mm
15 mm
10 mm
5 mm
0.1 mm
960 hPa
880 hPa
800 hPa
720 hPa
640 hPa
560 hPa
584 gpdm
568 gpdm
552 gpdm
536 gpdm
520 gpdm
504 gpdm
488 gpdm
Extreem zwaar Noodweer Kans op onweer
15% 15% 5% 50% 15%

Dag




Kaart






35°
30°
25°
20°
15°
10°
-5°
-10°
-15°
-20°
-25°
-30°
-35°
33> m/s
29 m/s
25 m/s
21 m/s
17 m/s
14 m/s
11 m/s
8 m/s
5 m/s
3 m/s
0 m/s
Extreem zwaar Noodweer Kans op onweer
15% 15% 5% 50% 15%
>120 mm
115 mm
110 mm
105 mm
100 mm
95 mm
90 mm
85 mm
80 mm
75 mm
70 mm
65 mm
60 mm
55 mm
50 mm
45 mm
45 mm
40 mm
35 mm
30 mm
25 mm
20 mm
15 mm
10 mm
5 mm
0.1 mm
Onweer risico kaarten - De groene en gele kleur geeft de kans op onweer aan binnen 40 km van een punt. Oranje, rood en violet hebben hetzelfde niveau zoals je het ziet op estofex.org waaronder ook de kans op hagel en supercells.

dBZ - dBZ staat voor decibel ten opzichte van Z.

Cape - Convective available potential energy (CAPE), is de totale hoeveelheid energie die een luchtpakketje nodig heeft om zover mogelijk te stijgen in de atmosfeer.

K Index - K-Index wordt berekend door de Vertical Totals (VT) en het verschil tussen de 850 hPa temperatuur en de 700 hPa dauwpuntsdepressie (Tdd 700) bij elkaar op te tellen.

TT Index - Convectie index wordt gebruikt voor het voorspellen van zware buien of onweer.

WRF - The Weather Research and Forecasting (WRF) is een volgende generatie mesoscale numeriek weersvoorspelling systeem ontworpen om zowel de operationele planning als het atmosferisch onderzoek te dienen. WRF is a cooperatie tussen het National Center for Atmospheric Research (NCAR), National Centers for Environmental Prediction (NCEP), Forecast Systems Laboratory (FSL), Air Force Weather Agency (AFWA), Naval Research Laboratory, University of Oklahoma, en de Federal Aviation Administration (FAA). Deze software draait op onze server.

WRFDA - Een meer geavanceerde versie van WRF

Arome - Het 2.5 km Arome model. Verzorgd door het Noors Meteorologisch Instituut.

MET Norway - De proff-default 4km meteorological data is een beste keus selectie van meteorologische modellen gebruikt door met.no die zijn geïnterpoleerd tot een gemeenschappelijke dataset. Verzorgd door het Noorse Meteorologisch Instituut.

SMHI - Het Hirlam model verzorgd door het Zweeds meteorologisch instituut.

FMI - Het Hirlam model verzorgd door het Fins meteorologisch instituut. Dekking alleen Finland.

GFS - Het Global Forecast Systeem (GFS) is een wereldwijd numerieke weersvoorspelling computermodel, gerund door NOAA.

GEM-GDPS - Het GEM-GDPS is a wereldwijd numeriek weersvoorspelling computermodel verzorgd door het Canadees Meteorologisch Centrum.

Credits/Info: Dank aan Stefan Gofferje van sääkeskus.fi voor enkele formules van GrADS. Info: Wikipedia.

Betrouwbaarheid van de verwachting

NB! 2015-03-29: Rebuilding the accuracy-test!

EWNACC
Day 1 Good forecasts

Dag 1 Tmax

Dag 2 Tmax

Geladen verwachtingen TOP 50

Totaal geladen verwachtingen:
Plaats Latitude Longitude Verwachtingen Plaats Latitude Longitude Verwachtingen